Location: Demre
(36.2444°N, 29.9850°E)
Time: 04:41:58
(UTC+00:00)

USA 267 - Pass Details

Date: 11 March 2026
Orbit: 1101 x 1107 km, 123.0° (Epoch: 10 January)

Event Time Altitude Azimuth Distance (km) Brightness Sun altitude
Exits shadow 18:38:13 37° 24° (NNE) 1,650 4.1 -31.4°
Maximum altitude 18:40:50 63° 319° (NW) 1,222 3.6 -31.9°
Drops below altitude 10° 18:47:15 10° 240° (WSW) 2,952 5.9 -33.1°
Sets 18:49:44 0° 237° (WSW) 3,906 6.6 -33.5°
